sat.trackr.live / text

‹ back to catalog

JILIN-1 KUANFU 01

NORAD 45016 · 2020-003A

PAYLOAD ACTIVE UNKNOWN

§ Identity

Operator
Country
PRC
Launch date
2020-01-15
Launch site
TAISC
Launch vehicle
Mass (kg)
RCS (m²)

External: N2YO · Heavens-Above · Gunter

§ Orbital elements

Epoch: 2026-05-25T04:02:29.142240Z

Period
95.33 min
Inclination
97.5030°
Eccentricity
0.0010331
Mean motion
15.10571119 rev/d
Perigee alt
527.3 km
Apogee alt
541.6 km
Semi-major
6,912.6 km
B*
1.6732e-4
RAAN
219.5745°
Arg perigee
30.5759°
Mean anomaly
329.6071°
Rev number
35,185

§ Raw data

JILIN-1 KUANFU 011 45016U 20003A   26145.16839285  .00002701  00000+0  16732-3 0  99922 45016  97.5030 219.5745 0010331  30.5759 329.6071 15.10571119351853

JSON: /api/v1/satellites/45016 · /tle

For live sub-satellite position, see the globe view (requires WebGL).

§ Visibility from observer

Set your observer location to see the next 7 days of passes ≥ 10°. The values pass through the URL so the page stays shareable.

No JS? Fill the form by hand. The geolocation button needs JavaScript.

§ Radio — SatNOGS DB

ModeDescriptionDownlinkUplink
BPSK S-band telemetry 2.280 GHz

1 transmitter · refreshed weekly from db.satnogs.org